;;;Fecha de Impresi�n:;;14/02/2023;;
GAD MUNICIPALIDAD DE AMBATO;;;;;;;
Reporte Solmaforo desde 01/01/2023 hasta 31/01/2023;;;;;;;
C�digo;Fecha;IUV;;IUV Completo;;;
2632305;03/01/2023 08:55:27;1;;1,1372;;;
2632307;03/01/2023 08:56:27;1;;1,1496;;;
2632309;03/01/2023 08:57:27;1;;1,1516;;;
2632311;03/01/2023 08:58:27;1;;1,138;;;
2632313;03/01/2023 08:59:27;1;;1,1104;;;
2632315;03/01/2023 09:00:27;1;;1,0728;;;
2632318;03/01/2023 09:02:27;1;;1,0016;;;
2632320;03/01/2023 09:03:27;1;;0,9804;;;
2632322;03/01/2023 09:04:27;1;;0,9724;;;
2632324;03/01/2023 09:05:27;1;;0,9764;;;
2632326;03/01/2023 09:06:27;1;;0,988;;;
2632328;03/01/2023 09:07:27;1;;1,0076;;;
2632331;03/01/2023 09:09:27;1;;1,0584;;;
2632333;03/01/2023 09:10:27;1;;1,0896;;;
2632335;03/01/2023 09:11:27;1;;1,1244;;;
2632337;03/01/2023 09:12:27;1;;1,1612;;;
2632339;03/01/2023 09:13:27;1;;1,1948;;;
2632341;03/01/2023 09:14:27;1;;1,2296;;;
2632344;03/01/2023 09:16:27;1;;1,3488;;;
2632346;03/01/2023 09:17:27;1;;1,4504;;;
2632348;03/01/2023 09:18:27;2;;1,548;;;
2632350;03/01/2023 09:19:27;2;;1,6216;;;
2632352;03/01/2023 09:20:27;2;;1,6596;;;
2632354;03/01/2023 09:21:27;2;;1,6548;;;
2632357;03/01/2023 09:23:27;2;;1,5856;;;
2632359;03/01/2023 09:24:27;2;;1,5324;;;
2632361;03/01/2023 09:25:27;1;;1,4756;;;
2632363;03/01/2023 09:26:27;1;;1,43;;;
2632365;03/01/2023 09:27:27;1;;1,3988;;;
2632367;03/01/2023 09:28:27;1;;1,3888;;;
2632370;03/01/2023 09:30:27;1;;1,4304;;;
2632372;03/01/2023 09:31:27;1;;1,4868;;;
2632374;03/01/2023 09:32:27;2;;1,558;;;
2632376;03/01/2023 09:33:27;2;;1,6344;;;
2632378;03/01/2023 09:34:27;2;;1,7084;;;
2632380;03/01/2023 09:35:27;2;;1,7696;;;
2632383;03/01/2023 09:37:27;2;;1,8188;;;
2632385;03/01/2023 09:38:27;2;;1,8144;;;
2632387;03/01/2023 09:39:27;2;;1,808;;;
2632389;03/01/2023 09:40:27;2;;1,8152;;;
2632391;03/01/2023 09:41:27;2;;1,8564;;;
2632393;03/01/2023 09:42:27;2;;1,9364;;;
2632396;03/01/2023 09:44:27;2;;2,1732;;;
2632398;03/01/2023 09:45:27;2;;2,3008;;;
2632400;03/01/2023 09:46:27;2;;2,4316;;;
2632402;03/01/2023 09:47:27;3;;2,55;;;
2632404;03/01/2023 09:48:27;3;;2,654;;;
2632406;03/01/2023 09:49:27;3;;2,718;;;
2632409;03/01/2023 09:51:27;3;;2,7704;;;
2632411;03/01/2023 09:52:27;3;;2,7472;;;
2632413;03/01/2023 09:53:27;3;;2,766;;;
2632415;03/01/2023 09:54:27;3;;2,6304;;;
2632417;03/01/2023 09:55:27;3;;2,614;;;
2632419;03/01/2023 09:56:27;3;;2,628;;;
2632422;03/01/2023 09:58:27;3;;2,6472;;;
2632424;03/01/2023 09:59:27;3;;2,642;;;
2632426;03/01/2023 10:00:27;3;;2,6852;;;
2632428;03/01/2023 10:01:27;3;;2,7308;;;
2632430;03/01/2023 10:02:27;3;;2,82;;;
2632432;03/01/2023 10:03:27;3;;2,9028;;;
2632435;03/01/2023 10:05:27;3;;2,94;;;
2632437;03/01/2023 10:06:27;3;;2,8836;;;
2632439;03/01/2023 10:07:27;3;;2,7956;;;
2632441;03/01/2023 10:08:27;2;;2,4356;;;
2632443;03/01/2023 10:09:27;2;;2,3132;;;
2632445;03/01/2023 10:10:27;2;;2,2744;;;
2632448;03/01/2023 10:12:27;2;;2,1908;;;
2632450;03/01/2023 10:13:27;2;;2,0808;;;
2632452;03/01/2023 10:14:27;2;;1,9344;;;
2632454;03/01/2023 10:15:27;2;;1,7972;;;
2632456;03/01/2023 10:16:27;2;;1,7236;;;
2632458;03/01/2023 10:17:27;2;;1,6908;;;
2632461;03/01/2023 10:19:27;2;;1,7136;;;
2632463;03/01/2023 10:20:27;2;;1,7196;;;
2632465;03/01/2023 10:21:27;2;;1,7688;;;
2632467;03/01/2023 10:22:27;2;;1,8856;;;
2632469;03/01/2023 10:23:27;2;;2,2436;;;
2632471;03/01/2023 10:24:27;2;;2,4184;;;
2632474;03/01/2023 10:26:27;3;;2,6632;;;
2632476;03/01/2023 10:27:27;3;;2,616;;;
2632478;03/01/2023 10:28:27;3;;2,6572;;;
2632480;03/01/2023 10:29:27;3;;2,7772;;;
2632482;03/01/2023 10:30:27;3;;2,9256;;;
2632484;03/01/2023 10:31:27;3;;3,142;;;
2632487;03/01/2023 10:33:27;3;;3,4576;;;
2632489;03/01/2023 10:34:27;4;;3,6108;;;
2632491;03/01/2023 10:35:27;4;;3,7292;;;
2632493;03/01/2023 10:36:27;4;;3,8308;;;
2632495;03/01/2023 10:37:27;4;;3,9056;;;
2632497;03/01/2023 10:38:27;4;;3,9232;;;
2632500;03/01/2023 10:40:27;4;;3,7472;;;
2632502;03/01/2023 10:41:27;4;;3,718;;;
2632504;03/01/2023 10:42:27;4;;4,0304;;;
2632506;03/01/2023 10:43:27;5;;4,5532;;;
2632508;03/01/2023 10:44:27;4;;4,4816;;;
2632510;03/01/2023 10:45:27;4;;4,0236;;;
2632513;03/01/2023 10:47:27;4;;3,9604;;;
2632515;03/01/2023 10:48:27;4;;3,9432;;;
2632517;03/01/2023 10:49:27;4;;3,8008;;;
2632519;03/01/2023 10:50:27;4;;3,6392;;;
2632521;03/01/2023 10:51:27;4;;3,5084;;;
2632523;03/01/2023 10:52:27;3;;3,4628;;;
2632526;03/01/2023 10:54:27;4;;3,6172;;;
2632528;03/01/2023 10:55:27;4;;3,6416;;;
2632530;03/01/2023 10:56:27;4;;3,72;;;
2632532;03/01/2023 10:57:27;4;;3,9252;;;
2632534;03/01/2023 10:58:27;4;;3,698;;;
2632536;03/01/2023 10:59:27;4;;3,6336;;;
2632539;03/01/2023 11:01:27;4;;3,572;;;
2632541;03/01/2023 11:02:27;4;;3,5652;;;
2632543;03/01/2023 11:03:27;4;;3,6772;;;
2632545;03/01/2023 11:04:27;4;;3,9128;;;
2632547;03/01/2023 11:05:27;4;;3,9564;;;
2632549;03/01/2023 11:06:27;4;;3,872;;;
2632552;03/01/2023 11:08:27;6;;5,5996;;;
2632554;03/01/2023 11:09:27;6;;5,6168;;;
2632556;03/01/2023 11:10:27;7;;6,8572;;;
2632558;03/01/2023 11:11:27;7;;6,71;;;
2632560;03/01/2023 11:12:27;7;;7,1544;;;
2632562;03/01/2023 11:13:27;7;;7,022;;;
2632565;03/01/2023 11:15:27;7;;6,6824;;;
2632567;03/01/2023 11:16:27;7;;6,6092;;;
2632569;03/01/2023 11:17:27;7;;6,7416;;;
2632571;03/01/2023 11:18:27;7;;6,9132;;;
2632573;03/01/2023 11:19:27;7;;6,9088;;;
2632575;03/01/2023 11:20:27;7;;6,9452;;;
2632578;03/01/2023 11:22:27;7;;6,9888;;;
2632580;03/01/2023 11:23:27;7;;6,9776;;;
2632582;03/01/2023 11:24:27;6;;6,3884;;;
2632584;03/01/2023 11:25:27;6;;6,182;;;
2632586;03/01/2023 11:26:27;6;;6,084;;;
2632588;03/01/2023 11:27:27;6;;6,0884;;;
2632591;03/01/2023 11:29:27;5;;4,9332;;;
2632593;03/01/2023 11:30:27;5;;5,076;;;
2632595;03/01/2023 11:31:27;5;;5,4352;;;
2632597;03/01/2023 11:32:27;5;;4,6028;;;
2632599;03/01/2023 11:33:27;3;;3,3432;;;
2632601;03/01/2023 11:34:27;4;;3,7248;;;
2632604;03/01/2023 11:36:27;6;;5,7028;;;
2632606;03/01/2023 11:37:27;6;;6,3444;;;
2632608;03/01/2023 11:38:27;6;;5,774;;;
2632610;03/01/2023 11:39:27;6;;5,6012;;;
2632612;03/01/2023 11:40:27;5;;5,3828;;;
2632614;03/01/2023 11:41:27;6;;5,5132;;;
2632617;03/01/2023 11:43:27;4;;4,3632;;;
2632619;03/01/2023 11:44:27;5;;4,7204;;;
2632621;03/01/2023 11:45:27;5;;5,344;;;
2632623;03/01/2023 11:46:27;5;;5,4128;;;
2632625;03/01/2023 11:47:27;5;;5,428;;;
2632627;03/01/2023 11:48:27;4;;4,4656;;;
2632630;03/01/2023 11:50:27;3;;3,2196;;;
2632632;03/01/2023 11:51:27;3;;3,0372;;;
2632634;03/01/2023 11:52:27;3;;3,22;;;
2632636;03/01/2023 11:53:27;4;;3,9344;;;
2632638;03/01/2023 11:54:27;4;;4,148;;;
2632640;03/01/2023 11:55:27;3;;3,376;;;
2632643;03/01/2023 11:57:27;3;;3,0688;;;
2632645;03/01/2023 11:58:27;3;;3,002;;;
2632647;03/01/2023 11:59:27;3;;3,0372;;;
2632649;03/01/2023 12:00:27;3;;3,1512;;;
2632651;03/01/2023 12:01:27;3;;3,1336;;;
2632653;03/01/2023 12:02:27;3;;3,1264;;;
2632656;03/01/2023 12:04:27;3;;3,0764;;;
2632658;03/01/2023 12:05:27;3;;3,068;;;
2632660;03/01/2023 12:06:27;3;;3,0404;;;
2632662;03/01/2023 12:07:27;3;;2,9908;;;
2632664;03/01/2023 12:08:27;3;;3,034;;;
2632666;03/01/2023 12:09:27;3;;3,1196;;;
2632669;03/01/2023 12:11:27;3;;2,6504;;;
2632671;03/01/2023 12:12:27;3;;2,6208;;;
2632673;03/01/2023 12:13:27;3;;2,634;;;
2632675;03/01/2023 12:14:27;3;;2,7532;;;
2632677;03/01/2023 12:15:27;3;;2,8552;;;
2632679;03/01/2023 12:16:27;3;;2,68;;;
2632682;03/01/2023 12:18:27;2;;2,4996;;;
2632684;03/01/2023 12:19:27;2;;2,4368;;;
2632686;03/01/2023 12:20:27;2;;2,3924;;;
2632688;03/01/2023 12:21:27;2;;2,3168;;;
2632690;03/01/2023 12:22:27;2;;2,2572;;;
2632692;03/01/2023 12:23:27;2;;2,148;;;
2632695;03/01/2023 12:25:27;2;;2,1108;;;
2632697;03/01/2023 12:26:27;2;;2,1312;;;
2632699;03/01/2023 12:27:27;2;;2,1556;;;
2632701;03/01/2023 12:28:27;2;;2,18;;;
2632703;03/01/2023 12:29:27;2;;2,2084;;;
2632705;03/01/2023 12:30:27;2;;2,25;;;
2632708;03/01/2023 12:32:27;2;;2,2464;;;
2632710;03/01/2023 12:33:27;2;;2,2164;;;
2632712;03/01/2023 12:34:27;2;;2,1872;;;
2632714;03/01/2023 12:35:27;2;;2,16;;;
2632716;03/01/2023 12:36:27;2;;2,1656;;;
2632718;03/01/2023 12:37:27;2;;2,1988;;;
2632721;03/01/2023 12:39:27;2;;2,2848;;;
2632723;03/01/2023 12:40:27;2;;2,3452;;;
2632725;03/01/2023 12:41:27;2;;2,4072;;;
2632727;03/01/2023 12:42:27;2;;2,45;;;
2632729;03/01/2023 12:43:27;2;;2,476;;;
2632731;03/01/2023 12:44:27;2;;2,4852;;;
2632734;03/01/2023 12:46:27;3;;2,5224;;;
2632736;03/01/2023 12:47:27;3;;2,5868;;;
2632738;03/01/2023 12:48:27;3;;2,5732;;;
2632740;03/01/2023 12:49:27;3;;2,6652;;;
2632742;03/01/2023 12:50:27;3;;2,5552;;;
2632744;03/01/2023 12:51:27;3;;2,5492;;;
2632747;03/01/2023 12:53:27;3;;2,7876;;;
2632749;03/01/2023 12:54:27;3;;2,5656;;;
2632751;03/01/2023 12:55:27;2;;2,4828;;;
2632753;03/01/2023 12:56:27;2;;2,4276;;;
2632755;03/01/2023 12:57:27;2;;2,3844;;;
2632757;03/01/2023 12:58:27;2;;2,3452;;;
2632760;03/01/2023 13:00:27;2;;2,2988;;;
2632762;03/01/2023 13:01:27;2;;2,3036;;;
2632764;03/01/2023 13:02:27;2;;2,3236;;;
2632766;03/01/2023 13:03:27;2;;2,3524;;;
2632768;03/01/2023 13:04:27;2;;2,384;;;
2632770;03/01/2023 13:05:27;2;;2,4096;;;
2632773;03/01/2023 13:07:27;2;;2,4476;;;
2632775;03/01/2023 13:08:27;2;;2,4604;;;
2632777;03/01/2023 13:09:27;2;;2,4768;;;
2632779;03/01/2023 13:10:27;3;;2,5024;;;
2632781;03/01/2023 13:11:27;3;;2,5348;;;
2632783;03/01/2023 13:12:27;3;;2,5604;;;
2632786;03/01/2023 13:14:27;3;;2,5932;;;
2632788;03/01/2023 13:15:27;3;;2,602;;;
2632790;03/01/2023 13:16:27;3;;2,6132;;;
2632792;03/01/2023 13:17:27;3;;2,6316;;;
2632794;03/01/2023 13:18:27;3;;2,6472;;;
2632796;03/01/2023 13:19:27;3;;2,652;;;
2632799;03/01/2023 13:21:27;3;;2,6312;;;
2632801;03/01/2023 13:22:27;3;;2,6104;;;
2632803;03/01/2023 13:23:27;3;;2,586;;;
2632805;03/01/2023 13:24:27;3;;2,5532;;;
2632807;03/01/2023 13:25:27;3;;2,54;;;
2632809;03/01/2023 13:26:27;3;;2,5188;;;
2632812;03/01/2023 13:28:27;2;;2,4804;;;
2632814;03/01/2023 13:29:27;2;;2,478;;;
2632816;03/01/2023 13:30:27;2;;2,4872;;;
2632818;03/01/2023 13:31:27;3;;2,5188;;;
2632820;03/01/2023 13:32:27;3;;2,564;;;
2632822;03/01/2023 13:33:27;3;;2,6188;;;
2632825;03/01/2023 13:35:27;3;;2,7204;;;
2632827;03/01/2023 13:36:27;3;;2,7608;;;
2632829;03/01/2023 13:37:27;3;;2,7764;;;
2632831;03/01/2023 13:38:27;3;;2,7672;;;
2632833;03/01/2023 13:39:27;3;;2,7388;;;
2632835;03/01/2023 13:40:27;3;;2,7088;;;
2632838;03/01/2023 13:42:27;3;;2,6732;;;
2632840;03/01/2023 13:43:27;3;;2,6824;;;
2632842;03/01/2023 13:44:27;3;;2,7044;;;
2632844;03/01/2023 13:45:27;3;;2,742;;;
2632846;03/01/2023 13:46:27;3;;2,794;;;
2632848;03/01/2023 13:47:27;3;;2,894;;;
2632851;03/01/2023 13:49:27;3;;3,0984;;;
2632853;03/01/2023 13:50:27;3;;3,208;;;
2632855;03/01/2023 13:51:27;3;;3,244;;;
2632857;03/01/2023 13:52:27;3;;3,202;;;
2632859;03/01/2023 13:53:27;3;;3,1688;;;
2632861;03/01/2023 13:54:27;3;;3,0976;;;
2632864;03/01/2023 13:56:27;3;;2,9544;;;
2632866;03/01/2023 13:57:27;3;;2,9268;;;
2632868;03/01/2023 13:58:27;3;;2,9084;;;
2632870;03/01/2023 13:59:27;3;;2,9024;;;
2632872;03/01/2023 14:00:27;3;;2,8944;;;
2632874;03/01/2023 14:01:27;3;;2,888;;;
2632877;03/01/2023 14:03:27;3;;2,8564;;;
2632879;03/01/2023 14:04:27;3;;2,852;;;
2632881;03/01/2023 14:05:27;3;;2,8584;;;
2632883;03/01/2023 14:06:27;3;;2,8788;;;
2632885;03/01/2023 14:07:27;3;;2,9352;;;
2632887;03/01/2023 14:08:26;3;;2,9156;;;
2632890;03/01/2023 14:10:27;3;;2,924;;;
2632892;03/01/2023 14:11:27;3;;2,9332;;;
2632894;03/01/2023 14:12:27;3;;2,932;;;
2632896;03/01/2023 14:13:27;3;;2,9728;;;
2632898;03/01/2023 14:14:27;3;;3,202;;;
2632900;03/01/2023 14:15:27;4;;3,7804;;;
2632903;03/01/2023 14:17:27;4;;3,6572;;;
2632905;03/01/2023 14:18:27;4;;3,69;;;
2632907;03/01/2023 14:19:27;4;;3,9544;;;
2632909;03/01/2023 14:20:27;4;;3,8604;;;
2632911;03/01/2023 14:21:27;5;;5,182;;;
2632913;03/01/2023 14:22:27;4;;4,0648;;;
2632916;03/01/2023 14:24:27;4;;4,2568;;;
2632918;03/01/2023 14:25:27;4;;3,604;;;
2632920;03/01/2023 14:26:27;4;;3,568;;;
2632922;03/01/2023 14:27:27;4;;4,3372;;;
2632924;03/01/2023 14:28:27;4;;3,9724;;;
2632926;03/01/2023 14:29:27;5;;5,0536;;;
2632929;03/01/2023 14:31:27;6;;5,722;;;
2632931;03/01/2023 14:32:27;5;;5,3032;;;
2632933;03/01/2023 14:33:27;6;;5,5752;;;
2632935;03/01/2023 14:34:27;5;;5,3828;;;
2632937;03/01/2023 14:35:27;6;;5,5624;;;
2632939;03/01/2023 14:36:27;5;;4,5644;;;
2632942;03/01/2023 14:38:27;3;;3,4368;;;
2632944;03/01/2023 14:39:27;3;;3,3636;;;
2632946;03/01/2023 14:40:27;4;;4,0756;;;
2632948;03/01/2023 14:41:27;5;;4,6652;;;
2632950;03/01/2023 14:42:27;5;;5,0288;;;
2632952;03/01/2023 14:43:27;5;;5,2504;;;
2632955;03/01/2023 14:45:27;5;;4,5896;;;
2632957;03/01/2023 14:46:27;5;;4,5744;;;
2632959;03/01/2023 14:47:27;5;;4,7284;;;
2632961;03/01/2023 14:48:27;5;;4,8812;;;
2632963;03/01/2023 14:49:27;4;;3,9572;;;
2632965;03/01/2023 14:50:27;5;;4,648;;;
2632968;03/01/2023 14:52:27;5;;4,5084;;;
2632970;03/01/2023 14:53:27;4;;4,4956;;;
2632972;03/01/2023 14:54:27;4;;4,4016;;;
2632974;03/01/2023 14:55:27;4;;3,84;;;
2632976;03/01/2023 14:56:27;4;;4,4524;;;
2632978;03/01/2023 14:57:27;4;;3,756;;;
2632981;03/01/2023 14:59:27;3;;3,1044;;;
2632983;03/01/2023 15:00:27;3;;2,704;;;
2632985;03/01/2023 15:01:27;2;;2,3984;;;
2632987;03/01/2023 15:02:27;3;;2,7668;;;
2632989;03/01/2023 15:03:27;3;;2,5156;;;
2632991;03/01/2023 15:04:27;3;;2,7364;;;
2632994;03/01/2023 15:06:27;4;;4,1472;;;
2632996;03/01/2023 15:07:27;4;;4,4328;;;
2632998;03/01/2023 15:08:27;4;;4,4372;;;
2633000;03/01/2023 15:09:27;4;;4,3148;;;
2633002;03/01/2023 15:10:27;4;;3,9264;;;
2633004;03/01/2023 15:11:27;3;;3,4896;;;
2633007;03/01/2023 15:13:27;3;;3,392;;;
2633009;03/01/2023 15:14:27;3;;2,6376;;;
2633011;03/01/2023 15:15:27;2;;2,26;;;
2633013;03/01/2023 15:16:27;2;;2,0088;;;
2633015;03/01/2023 15:17:27;2;;1,894;;;
2633017;03/01/2023 15:18:27;2;;1,8824;;;
2633020;03/01/2023 15:20:27;2;;2,0264;;;
2633022;03/01/2023 15:21:27;2;;2,0496;;;
2633024;03/01/2023 15:22:27;2;;2,0788;;;
2633026;03/01/2023 15:23:27;2;;2,0804;;;
2633028;03/01/2023 15:24:27;2;;2,1132;;;
2633030;03/01/2023 15:25:27;2;;2,2032;;;
2633033;03/01/2023 15:27:27;4;;3,5156;;;
2633035;03/01/2023 15:28:27;3;;2,7276;;;
2633037;03/01/2023 15:29:27;2;;2,1804;;;
2633039;03/01/2023 15:30:27;2;;2,11;;;
2633041;03/01/2023 15:31:27;2;;2,2308;;;
2633043;03/01/2023 15:32:27;3;;2,5456;;;
2633046;03/01/2023 15:34:27;3;;2,6728;;;
2633048;03/01/2023 15:35:27;3;;3,104;;;
2633050;03/01/2023 15:36:27;3;;2,7672;;;
2633052;03/01/2023 15:37:27;3;;2,932;;;
2633054;03/01/2023 15:38:27;4;;3,6244;;;
2633056;03/01/2023 15:39:27;4;;3,6888;;;
2633059;03/01/2023 15:41:27;2;;2,4212;;;
2633061;03/01/2023 15:42:27;2;;1,988;;;
2633063;03/01/2023 15:43:27;2;;1,8932;;;
2633065;03/01/2023 15:44:27;2;;1,854;;;
2633067;03/01/2023 15:45:27;2;;1,8236;;;
2633069;03/01/2023 15:46:27;2;;1,792;;;
2633072;03/01/2023 15:48:27;2;;1,786;;;
2633074;03/01/2023 15:49:27;2;;1,7672;;;
2633076;03/01/2023 15:50:27;2;;1,7676;;;
2633078;03/01/2023 15:51:27;2;;1,8512;;;
2633080;03/01/2023 15:52:27;2;;2,21;;;
2633082;03/01/2023 15:53:27;2;;2,4876;;;
2633085;03/01/2023 15:55:27;2;;1,8536;;;
2633087;03/01/2023 15:56:27;2;;1,722;;;
2633089;03/01/2023 15:57:27;2;;1,7416;;;
2633091;03/01/2023 15:58:27;2;;1,78;;;
2633093;03/01/2023 15:59:27;2;;1,83;;;
2633095;03/01/2023 16:00:27;2;;1,9824;;;
2633098;03/01/2023 16:02:27;3;;2,894;;;
2633100;03/01/2023 16:03:26;3;;2,9736;;;
2633102;03/01/2023 16:04:27;3;;2,944;;;
2633104;03/01/2023 16:05:27;3;;2,5016;;;
2633106;03/01/2023 16:06:27;2;;1,9084;;;
2633108;03/01/2023 16:07:27;2;;1,612;;;
2633111;03/01/2023 16:09:27;2;;1,5152;;;
2633113;03/01/2023 16:10:27;1;;1,4968;;;
2633115;03/01/2023 16:11:27;1;;1,4908;;;
2633117;03/01/2023 16:12:27;2;;1,5832;;;
2633119;03/01/2023 16:13:27;2;;1,6316;;;
2633121;03/01/2023 16:14:27;2;;1,532;;;
2633124;03/01/2023 16:16:27;2;;1,7328;;;
2633126;03/01/2023 16:17:27;2;;2,1668;;;
2633128;03/01/2023 16:18:27;2;;1,8272;;;
2633130;03/01/2023 16:19:27;2;;1,6188;;;
2633132;03/01/2023 16:20:27;2;;1,7372;;;
2633134;03/01/2023 16:21:27;1;;1,354;;;
2633137;03/01/2023 16:23:27;1;;1,2252;;;
2633139;03/01/2023 16:24:27;1;;1,184;;;
2633141;03/01/2023 16:25:27;1;;1,2268;;;
2633143;03/01/2023 16:26:27;1;;1,242;;;
2633145;03/01/2023 16:27:27;1;;1,2488;;;
2633147;03/01/2023 16:28:27;1;;1,266;;;
2633150;03/01/2023 16:30:27;1;;1,33;;;
2633152;03/01/2023 16:31:27;1;;1,3592;;;
2633154;03/01/2023 16:32:27;1;;1,372;;;
2633156;03/01/2023 16:33:27;1;;1,382;;;
2633158;03/01/2023 16:34:27;1;;1,4012;;;
2633160;03/01/2023 16:35:27;1;;1,438;;;
2633163;03/01/2023 16:37:27;2;;1,5352;;;
2633165;03/01/2023 16:38:27;2;;1,6116;;;
2633167;03/01/2023 16:39:26;2;;1,7828;;;
2633169;03/01/2023 16:40:27;2;;1,9904;;;
2633171;03/01/2023 16:41:27;2;;1,9816;;;
2633173;03/01/2023 16:42:27;2;;1,9408;;;
2633176;03/01/2023 16:44:27;2;;2,0108;;;
2633178;03/01/2023 16:45:27;2;;1,9368;;;
2633180;03/01/2023 16:46:27;2;;1,6936;;;
2633182;03/01/2023 16:47:27;2;;1,6244;;;
2633184;03/01/2023 16:48:27;2;;1,5944;;;
2633186;03/01/2023 16:49:27;2;;1,59;;;
2633189;03/01/2023 16:51:27;2;;1,8048;;;
2633191;03/01/2023 16:52:27;2;;1,8828;;;
2633193;03/01/2023 16:53:27;2;;1,886;;;
2633195;03/01/2023 16:54:27;2;;1,7708;;;
2633197;03/01/2023 16:55:26;2;;1,6368;;;
2633199;03/01/2023 16:56:27;1;;1,4564;;;
2633202;03/01/2023 16:58:27;1;;1,3676;;;
2633204;03/01/2023 16:59:27;1;;1,2644;;;
2633206;03/01/2023 17:00:27;1;;1,1864;;;
2633208;03/01/2023 17:01:27;1;;1,0512;;;
2633210;03/01/2023 17:02:27;1;;0,9432;;;
2633212;03/01/2023 17:03:27;1;;0,9056;;;
2633215;03/01/2023 17:05:27;1;;0,8536;;;
2633217;03/01/2023 17:06:27;1;;0,7616;;;
2633219;03/01/2023 17:07:27;1;;0,7136;;;
2633221;03/01/2023 17:08:27;1;;0,674;;;
2633223;03/01/2023 17:09:27;1;;0,6388;;;
2633225;03/01/2023 17:10:27;1;;0,606;;;
2633228;03/01/2023 17:12:27;1;;0,554;;;
2633230;03/01/2023 17:13:26;1;;0,5292;;;
2633232;03/01/2023 17:14:27;1;;0,5044;;;
2633234;03/01/2023 17:15:27;0;;0,4884;;;
2633236;03/01/2023 17:16:27;0;;0,4828;;;
2633238;03/01/2023 17:17:27;0;;0,4444;;;
2633241;03/01/2023 17:19:27;0;;0,4056;;;
2633243;03/01/2023 17:20:27;0;;0,3816;;;
2633245;03/01/2023 17:21:27;0;;0,3708;;;
2633247;03/01/2023 17:22:26;0;;0,3524;;;
2633249;03/01/2023 17:23:27;0;;0,3336;;;
2633251;03/01/2023 17:24:27;0;;0,3192;;;
2633254;03/01/2023 17:26:27;0;;0,2856;;;
2633256;03/01/2023 17:27:27;0;;0,2672;;;
2633258;03/01/2023 17:28:27;0;;0,2512;;;
2633260;03/01/2023 17:29:27;0;;0,2352;;;
2633262;03/01/2023 17:30:27;0;;0,22;;;
2633264;03/01/2023 17:31:26;0;;0,1944;;;
2633267;03/01/2023 17:33:27;0;;0,156;;;
2633269;03/01/2023 17:34:27;0;;0,1556;;;
2633271;03/01/2023 17:35:27;0;;0,1564;;;
2633273;03/01/2023 17:36:27;0;;0,1528;;;
2633275;03/01/2023 17:37:27;0;;0,1412;;;
2633277;03/01/2023 17:38:27;0;;0,1296;;;
2633280;03/01/2023 17:40:26;0;;0,1164;;;
2633282;03/01/2023 17:41:27;0;;0,1132;;;
2633284;03/01/2023 17:42:27;0;;0,1144;;;
2633286;03/01/2023 17:43:27;0;;0,1204;;;
2633288;03/01/2023 17:44:27;0;;0,1296;;;
2633290;03/01/2023 17:45:27;0;;0,138;;;
2633293;03/01/2023 17:47:27;0;;0,1448;;;
2633295;03/01/2023 17:48:27;0;;0,144;;;
2633297;03/01/2023 17:49:26;0;;0,1436;;;
2633299;03/01/2023 17:50:27;0;;0,1428;;;
2633301;03/01/2023 17:51:27;0;;0,1416;;;
2633303;03/01/2023 17:52:27;0;;0,1392;;;
2633306;03/01/2023 17:54:27;0;;0,1328;;;
2633308;03/01/2023 17:55:27;0;;0,1304;;;
2633310;03/01/2023 17:56:26;0;;0,1276;;;
2633312;03/01/2023 17:57:27;0;;0,1252;;;
2633314;03/01/2023 17:58:26;0;;0,122;;;
2633316;03/01/2023 17:59:27;0;;0,118;;;
2633319;03/01/2023 18:01:27;0;;0,1136;;;
2633321;03/01/2023 18:02:27;0;;0,1128;;;
2633323;03/01/2023 18:03:27;0;;0,1112;;;
2633325;03/01/2023 18:04:27;0;;0,1084;;;
2633327;03/01/2023 18:05:26;0;;0,1064;;;
2633329;03/01/2023 18:06:27;0;;0,104;;;
2633332;03/01/2023 18:08:27;0;;0,0996;;;
2633334;03/01/2023 18:09:26;0;;0,0996;;;
2633336;03/01/2023 18:10:27;0;;0,0984;;;
2633338;03/01/2023 18:11:27;0;;0,0936;;;
2633340;03/01/2023 18:12:27;0;;0,0876;;;
2633342;03/01/2023 18:13:27;0;;0,0816;;;
2633345;03/01/2023 18:15:27;0;;0,0708;;;
2633346;03/01/2023 18:16:26;0;;0,0656;;;
2633347;03/01/2023 18:17:27;0;;0,0604;;;
2633348;03/01/2023 18:18:27;0;;0,0556;;;
2633349;03/01/2023 18:19:27;0;;0,0508;;;
2633350;03/01/2023 18:20:27;0;;0,046;;;
2633351;03/01/2023 18:22:27;0;;0,0372;;;
2633352;03/01/2023 18:23:26;0;;0,0336;;;
2633353;03/01/2023 18:24:27;0;;0,0296;;;
2633354;03/01/2023 18:25:26;0;;0,026;;;
2633355;03/01/2023 18:26:27;0;;0,0224;;;
2633356;03/01/2023 18:27:27;0;;0,0196;;;
2633357;03/01/2023 18:29:27;0;;0,0148;;;
2633358;03/01/2023 18:30:27;0;;0,0124;;;
2633359;03/01/2023 18:31:27;0;;0,0104;;;
2633360;03/01/2023 18:32:26;0;;0,0084;;;
2633361;03/01/2023 18:33:27;0;;0,0072;;;
2633362;03/01/2023 18:34:27;0;;0,006;;;
2633363;03/01/2023 18:36:27;0;;0,004;;;
2633364;03/01/2023 18:37:27;0;;0,0032;;;
2633365;03/01/2023 18:38:27;0;;0,0028;;;
2633366;03/01/2023 18:39:27;0;;0,002;;;
2633367;03/01/2023 18:40:27;0;;0,0016;;;
2633368;03/01/2023 18:41:26;0;;0,0012;;;
2633369;03/01/2023 18:43:26;0;;0,0004;;;
2633370;03/01/2023 18:44:27;0;;0,0004;;;
2633371;03/01/2023 18:45:27;0;;0,0004;;;
2633372;03/01/2023 18:46:27;0;;0;;;
2633373;03/01/2023 18:47:27;0;;0;;;
2633374;03/01/2023 18:48:27;0;;0;;;
2633375;03/01/2023 18:50:26;0;;0;;;
2633376;03/01/2023 18:51:27;0;;0;;;
2633377;03/01/2023 18:52:27;0;;0;;;
2633378;03/01/2023 18:53:27;0;;0;;;
2633379;03/01/2023 18:54:27;0;;0;;;
2633380;03/01/2023 18:55:27;0;;0;;;
2633381;03/01/2023 18:57:27;0;;0;;;
2633382;03/01/2023 18:58:27;0;;0;;;
2633383;03/01/2023 18:59:26;0;;0;;;
2633430;04/01/2023 05:01:26;0;;0;;;
2633432;04/01/2023 05:02:26;0;;0;;;
2633434;04/01/2023 05:03:26;0;;0;;;
2633436;04/01/2023 05:04:26;0;;0;;;
2633438;04/01/2023 05:05:26;0;;0;;;
2633440;04/01/2023 05:06:26;0;;0;;;
2633443;04/01/2023 05:08:26;0;;0;;;
2633445;04/01/2023 05:09:26;0;;0;;;
2633447;04/01/2023 05:10:26;0;;0;;;
2633449;04/01/2023 05:11:26;0;;0;;;
2633451;04/01/2023 05:12:26;0;;0;;;
2633453;04/01/2023 05:13:26;0;;0;;;
2633456;04/01/2023 05:15:26;0;;0;;;
2633458;04/01/2023 05:16:26;0;;0;;;
2633460;04/01/2023 05:17:26;0;;0;;;
2633462;04/01/2023 05:18:26;0;;0;;;
2633464;04/01/2023 05:19:26;0;;0;;;
2633466;04/01/2023 05:20:26;0;;0;;;
2633469;04/01/2023 05:22:26;0;;0;;;
2633471;04/01/2023 05:23:26;0;;0;;;
2633473;04/01/2023 05:24:26;0;;0;;;
2633475;04/01/2023 05:25:26;0;;0;;;
2633477;04/01/2023 05:26:26;0;;0;;;
2633479;04/01/2023 05:27:26;0;;0;;;
2633482;04/01/2023 05:29:26;0;;0;;;
2633484;04/01/2023 05:30:26;0;;0;;;
2633486;04/01/2023 05:31:26;0;;0;;;
2633488;04/01/2023 05:32:26;0;;0;;;
2633490;04/01/2023 05:33:26;0;;0;;;
2633492;04/01/2023 05:34:26;0;;0;;;
2633495;04/01/2023 05:36:26;0;;0;;;
2633497;04/01/2023 05:37:26;0;;0;;;
2633499;04/01/2023 05:38:26;0;;0;;;
2633501;04/01/2023 05:39:26;0;;0;;;
2633503;04/01/2023 05:40:26;0;;0;;;
2633505;04/01/2023 05:41:26;0;;0;;;
2633508;04/01/2023 05:43:26;0;;0;;;
2633510;04/01/2023 05:44:26;0;;0;;;
2633512;04/01/2023 05:45:26;0;;0;;;
2633514;04/01/2023 05:46:26;0;;0;;;
2633516;04/01/2023 05:47:26;0;;0;;;
2633518;04/01/2023 05:48:26;0;;0;;;
2633521;04/01/2023 05:50:26;0;;0;;;
2633523;04/01/2023 05:51:26;0;;0;;;
2633525;04/01/2023 05:52:26;0;;0;;;
2633527;04/01/2023 05:53:26;0;;0,0004;;;
2633529;04/01/2023 05:54:26;0;;0,0004;;;
2633531;04/01/2023 05:55:26;0;;0,0004;;;
2633534;04/01/2023 05:57:26;0;;0,0012;;;
2633536;04/01/2023 05:58:26;0;;0,0016;;;
2633538;04/01/2023 05:59:26;0;;0,0024;;;
2633540;04/01/2023 06:00:26;0;;0,0032;;;
2633542;04/01/2023 06:01:26;0;;0,004;;;
2633544;04/01/2023 06:02:26;0;;0,0052;;;
2633547;04/01/2023 06:04:26;0;;0,0072;;;
2633549;04/01/2023 06:05:26;0;;0,0088;;;
2633551;04/01/2023 06:06:26;0;;0,0108;;;
2633553;04/01/2023 06:07:26;0;;0,0128;;;